Time,TemperatureF,DewpointF,PressureIn,WindDirection,WindDirectionDegrees,WindSpeedMPH,WindSpeedGustMPH,Humidity,HourlyPrecipIn,Conditions,Clouds,dailyrainin,SoftwareType,DateUTC
2013-08-13 00:01:00,76.3,67.4,30.09,SSW,198,0.0,0.0,74,0.00,CLR,,0.00,WeatherDisplay:10.37,2013-08-13 04:01:00,
2013-08-13 00:06:00,76.3,69.3,30.08,SSW,198,0.0,0.0,79,0.00,CLR,,0.00,WeatherDisplay:10.37,2013-08-13 04:06:00,
2013-08-13 00:11:00,76.3,69.3,30.08,SSW,198,0.0,0.0,79,0.00,CLR,,0.00,WeatherDisplay:10.37,2013-08-13 04:11:00,
2013-08-13 00:16:00,76.3,69.3,30.08,SSW,198,3.5,3.5,79,0.00,CLR,,0.00,WeatherDisplay:10.37,2013-08-13 04:16:00,
2013-08-13 00:21:00,76.1,69.1,30.08,SSW,196,3.5,3.6,79,0.00,CLR,,0.00,WeatherDisplay:10.37,2013-08-13 04:21:00,
2013-08-13 00:26:00,76.1,69.1,30.08,SSW,196,3.5,0.0,79,0.00,CLR,,0.00,WeatherDisplay:10.37,2013-08-13 04:26:00,
2013-08-13 00:31:00,75.9,68.9,30.08,SSW,196,2.3,0.0,79,0.00,CLR,,0.00,WeatherDisplay:10.37,2013-08-13 04:31:00,
2013-08-13 00:36:00,75.9,68.9,30.08,SSW,200,3.5,3.5,79,0.00,CLR,,0.00,WeatherDisplay:10.37,2013-08-13 04:36:00,
2013-08-13 00:41:00,75.9,68.9,30.08,SSW,195,3.5,3.5,79,0.00,CLR,,0.00,WeatherDisplay:10.37,2013-08-13 04:41:00,
2013-08-13 00:46:00,75.7,68.8,30.08,SSW,194,3.5,3.5,79,0.00,CLR,,0.00,WeatherDisplay:10.37,2013-08-13 04:46:00,
2013-08-13 00:51:00,75.7,68.8,30.08,South,178,3.5,3.5,79,0.00,CLR,,0.00,WeatherDisplay:10.37,2013-08-13 04:51:00,
2013-08-13 00:56:00,75.6,68.6,30.08,South,178,3.5,3.5,79,0.00,CLR,,0.00,WeatherDisplay:10.37,2013-08-13 04:56:00,
2013-08-13 01:01:00,75.6,68.6,30.08,South,178,3.5,3.5,79,0.00,CLR,,0.00,WeatherDisplay:10.37,2013-08-13 05:01:00,
2013-08-13 01:06:00,75.4,68.4,30.08,South,177,4.0,4.0,79,0.00,CLR,,0.00,WeatherDisplay:10.37,2013-08-13 05:06:00,
2013-08-13 01:11:00,75.4,68.4,30.08,South,177,0.0,0.0,79,0.00,CLR,,0.00,WeatherDisplay:10.37,2013-08-13 05:11:00,
2013-08-13 01:16:00,75.2,68.2,30.08,South,177,3.5,0.0,79,0.00,CLR,,0.00,WeatherDisplay:10.37,2013-08-13 05:16:00,
2013-08-13 01:21:00,75.2,68.2,30.08,South,179,0.0,0.0,79,0.00,CLR,,0.00,WeatherDisplay:10.37,2013-08-13 05:21:00,
2013-08-13 01:26:00,75.0,68.1,30.08,South,179,0.0,0.0,79,0.00,CLR,,0.00,WeatherDisplay:10.37,2013-08-13 05:26:00,
2013-08-13 01:31:00,75.0,68.1,30.08,South,179,0.0,0.0,79,0.00,CLR,,0.00,WeatherDisplay:10.37,2013-08-13 05:31:00,
2013-08-13 01:36:00,74.7,67.7,30.08,South,179,0.0,0.0,79,0.00,CLR,,0.00,WeatherDisplay:10.37,2013-08-13 05:36:00,
2013-08-13 01:41:00,74.7,67.7,30.08,South,179,0.0,0.0,79,0.00,CLR,,0.00,WeatherDisplay:10.37,2013-08-13 05:41:00,
2013-08-13 01:46:00,74.7,67.7,30.08,South,179,0.0,0.0,79,0.00,CLR,,0.00,WeatherDisplay:10.37,2013-08-13 05:46:00,
2013-08-13 01:51:00,74.5,67.5,30.08,SW,223,4.6,0.0,79,0.00,CLR,,0.00,WeatherDisplay:10.37,2013-08-13 05:51:00,
2013-08-13 01:56:00,74.5,67.5,30.08,SW,222,2.3,0.0,79,0.00,CLR,,0.00,WeatherDisplay:10.37,2013-08-13 05:56:00,
2013-08-13 02:01:00,74.5,69.3,30.04,SW,222,0.0,0.0,84,0.00,CLR,,0.00,WeatherDisplay:10.37,2013-08-13 06:01:00,
2013-08-13 02:06:00,74.3,69.1,30.04,SW,222,0.0,0.0,84,0.00,CLR,,0.00,WeatherDisplay:10.37,2013-08-13 06:06:00,
2013-08-13 02:11:00,74.1,69.0,30.04,SW,222,0.0,0.0,84,0.00,CLR,,0.00,WeatherDisplay:10.37,2013-08-13 06:11:00,
2013-08-13 02:16:00,73.9,68.8,30.04,West,273,0.0,0.0,84,0.00,CLR,,0.00,WeatherDisplay:10.37,2013-08-13 06:16:00,
2013-08-13 02:21:00,73.9,68.8,30.04,West,273,0.0,0.0,84,0.00,CLR,,0.00,WeatherDisplay:10.37,2013-08-13 06:21:00,
2013-08-13 02:26:00,73.9,68.8,30.04,West,273,0.0,0.0,84,0.00,CLR,,0.00,WeatherDisplay:10.37,2013-08-13 06:26:00,
2013-08-13 02:31:00,73.9,68.8,30.04,West,273,0.0,0.0,84,0.00,CLR,,0.00,WeatherDisplay:10.37,2013-08-13 06:31:00,
2013-08-13 02:36:00,73.9,68.8,30.04,West,273,0.0,0.0,84,0.00,CLR,,0.00,WeatherDisplay:10.37,2013-08-13 06:36:00,
2013-08-13 02:41:00,73.8,68.6,30.04,West,273,0.0,0.0,84,0.00,CLR,,0.00,WeatherDisplay:10.37,2013-08-13 06:41:00,
2013-08-13 02:46:00,73.8,68.6,30.04,West,273,0.0,0.0,84,0.00,CLR,,0.00,WeatherDisplay:10.37,2013-08-13 06:46:00,
2013-08-13 02:51:00,73.8,68.6,30.04,West,273,0.0,0.0,84,0.00,CLR,,0.00,WeatherDisplay:10.37,2013-08-13 06:51:00,
2013-08-13 02:57:00,73.9,68.8,30.04,West,273,0.0,0.0,84,0.00,CLR,,0.00,WeatherDisplay:10.37,2013-08-13 06:57:00,
2013-08-13 03:02:00,73.9,70.8,30.05,West,273,0.0,0.0,90,0.00,CLR,,0.00,WeatherDisplay:10.37,2013-08-13 07:02:00,
2013-08-13 03:07:00,73.9,70.8,30.05,West,271,0.0,0.0,90,0.00,CLR,,0.00,WeatherDisplay:10.37,2013-08-13 07:07:00,
2013-08-13 03:12:00,73.9,70.8,30.05,West,271,0.0,0.0,90,0.00,CLR,,0.00,WeatherDisplay:10.37,2013-08-13 07:12:00,
2013-08-13 03:17:00,73.9,70.8,30.05,West,271,0.0,0.0,90,0.00,CLR,,0.00,WeatherDisplay:10.37,2013-08-13 07:17:00,
2013-08-13 03:22:00,73.9,70.8,30.05,WSW,253,0.0,0.0,90,0.00,CLR,,0.00,WeatherDisplay:10.37,2013-08-13 07:22:00,
2013-08-13 03:27:00,73.9,70.8,30.05,WSW,253,0.0,0.0,90,0.00,CLR,,0.00,WeatherDisplay:10.37,2013-08-13 07:27:00,
2013-08-13 03:32:00,73.8,70.6,30.05,WSW,253,0.0,0.0,90,0.00,CLR,,0.00,WeatherDisplay:10.37,2013-08-13 07:32:00,
2013-08-13 03:37:00,73.8,70.6,30.05,WSW,253,0.0,0.0,90,0.00,CLR,,0.00,WeatherDisplay:10.37,2013-08-13 07:37:00,
2013-08-13 03:42:00,73.6,70.5,30.05,WSW,253,0.0,0.0,90,0.00,CLR,,0.00,WeatherDisplay:10.37,2013-08-13 07:42:00,
2013-08-13 03:47:00,73.6,70.5,30.05,WSW,253,0.0,0.0,90,0.00,CLR,,0.00,WeatherDisplay:10.37,2013-08-13 07:47:00,
2013-08-13 03:52:00,73.6,70.5,30.05,WSW,253,0.0,0.0,90,0.00,CLR,,0.00,WeatherDisplay:10.37,2013-08-13 07:52:00,
2013-08-13 03:57:00,73.4,70.3,30.05,WSW,253,0.0,0.0,90,0.00,CLR,,0.00,WeatherDisplay:10.37,2013-08-13 07:57:00,
2013-08-13 04:02:00,73.2,68.1,30.04,WSW,253,0.0,0.0,84,0.00,CLR,,0.00,WeatherDisplay:10.37,2013-08-13 08:02:00,
2013-08-13 04:07:00,73.2,68.1,30.04,WSW,253,0.0,0.0,84,0.00,CLR,,0.00,WeatherDisplay:10.37,2013-08-13 08:07:00,
2013-08-13 04:12:00,73.0,67.9,30.04,WSW,253,0.0,0.0,84,0.00,CLR,,0.00,WeatherDisplay:10.37,2013-08-13 08:12:00,
2013-08-13 04:17:00,73.0,67.9,30.04,WSW,253,0.0,0.0,84,0.00,CLR,,0.00,WeatherDisplay:10.37,2013-08-13 08:17:00,
2013-08-13 04:22:00,72.9,67.7,30.04,WSW,253,0.0,0.0,84,0.00,CLR,,0.00,WeatherDisplay:10.37,2013-08-13 08:22:00,
2013-08-13 04:27:00,72.9,67.7,30.04,WSW,253,0.0,0.0,84,0.00,CLR,,0.00,WeatherDisplay:10.37,2013-08-13 08:27:00,
2013-08-13 04:32:00,72.7,67.6,30.04,WSW,253,0.0,0.0,84,0.00,CLR,,0.00,WeatherDisplay:10.37,2013-08-13 08:32:00,
2013-08-13 04:37:00,72.7,67.6,30.04,WSW,253,0.0,0.0,84,0.00,CLR,,0.00,WeatherDisplay:10.37,2013-08-13 08:37:00,
2013-08-13 04:42:00,72.5,67.4,30.04,WSW,253,0.0,0.0,84,0.00,CLR,,0.00,WeatherDisplay:10.37,2013-08-13 08:42:00,
2013-08-13 04:47:00,72.5,67.4,30.04,WSW,253,0.0,0.0,84,0.00,CLR,,0.00,WeatherDisplay:10.37,2013-08-13 08:47:00,
2013-08-13 04:52:00,72.5,67.4,30.04,WSW,253,0.0,0.0,84,0.00,CLR,,0.00,WeatherDisplay:10.37,2013-08-13 08:52:00,
2013-08-13 04:57:00,72.5,67.4,30.04,WSW,237,2.3,0.0,84,0.00,CLR,,0.00,WeatherDisplay:10.37,2013-08-13 08:57:00,
2013-08-13 05:02:00,72.7,69.6,30.03,WSW,237,3.1,3.1,90,0.00,CLR,,0.00,WeatherDisplay:10.37,2013-08-13 09:02:00,
2013-08-13 05:07:00,72.9,69.8,30.03,WSW,237,2.3,2.3,90,0.00,CLR,,0.00,WeatherDisplay:10.37,2013-08-13 09:07:00,
2013-08-13 05:12:00,73.0,69.9,30.03,WSW,237,0.0,0.0,90,0.00,CLR,,0.00,WeatherDisplay:10.37,2013-08-13 09:12:00,
2013-08-13 05:17:00,73.0,69.9,30.03,WSW,237,0.0,0.0,90,0.00,CLR,,0.00,WeatherDisplay:10.37,2013-08-13 09:17:00,
2013-08-13 05:22:00,73.0,69.9,30.03,WSW,237,0.0,0.0,90,0.00,CLR,,0.00,WeatherDisplay:10.37,2013-08-13 09:22:00,
2013-08-13 05:27:00,73.2,70.1,30.03,WSW,237,0.0,0.0,90,0.00,CLR,,0.00,WeatherDisplay:10.37,2013-08-13 09:27:00,
2013-08-13 05:32:00,73.2,70.1,30.03,WSW,237,0.0,0.0,90,0.00,CLR,,0.00,WeatherDisplay:10.37,2013-08-13 09:32:00,
2013-08-13 05:37:00,73.2,70.1,30.03,WSW,237,2.3,2.3,90,0.00,CLR,,0.00,WeatherDisplay:10.37,2013-08-13 09:37:00,
2013-08-13 05:42:00,73.2,70.1,30.03,WSW,237,2.3,0.0,90,0.00,CLR,,0.00,WeatherDisplay:10.37,2013-08-13 09:42:00,
2013-08-13 05:47:00,73.4,70.3,30.03,WSW,237,0.0,0.0,90,0.00,CLR,,0.00,WeatherDisplay:10.37,2013-08-13 09:47:00,
2013-08-13 05:52:00,73.4,70.3,30.03,WSW,237,0.0,0.0,90,0.00,CLR,,0.00,WeatherDisplay:10.37,2013-08-13 09:52:00,
2013-08-13 05:57:00,73.4,70.3,30.03,WSW,237,0.0,0.0,90,0.00,CLR,,0.00,WeatherDisplay:10.37,2013-08-13 09:57:00,
2013-08-13 06:02:00,73.2,69.1,30.03,WSW,237,0.0,0.0,87,0.00,CLR,,0.00,WeatherDisplay:10.37,2013-08-13 10:02:00,
2013-08-13 06:07:00,73.0,68.9,30.03,WSW,237,0.0,0.0,87,0.00,CLR,,0.00,WeatherDisplay:10.37,2013-08-13 10:07:00,
2013-08-13 06:12:00,73.0,68.9,30.03,WSW,237,0.0,0.0,87,0.00,CLR,,0.00,WeatherDisplay:10.37,2013-08-13 10:12:00,
2013-08-13 06:17:00,73.0,68.9,30.03,WSW,237,0.0,0.0,87,0.00,CLR,,0.00,WeatherDisplay:10.37,2013-08-13 10:17:00,
2013-08-13 06:22:00,72.9,68.8,30.03,WSW,237,0.0,0.0,87,0.00,CLR,,0.00,WeatherDisplay:10.37,2013-08-13 10:22:00,
2013-08-13 06:27:00,72.9,68.8,30.03,WSW,237,0.0,0.0,87,0.00,CLR,,0.00,WeatherDisplay:10.37,2013-08-13 10:27:00,
2013-08-13 06:32:00,73.0,68.9,30.03,WSW,237,0.0,0.0,87,0.00,CLR,,0.00,WeatherDisplay:10.37,2013-08-13 10:32:00,
2013-08-13 06:37:00,72.9,68.8,30.03,WSW,237,0.0,0.0,87,0.00,CLR,,0.00,WeatherDisplay:10.37,2013-08-13 10:37:00,
2013-08-13 06:42:00,72.9,68.8,30.03,WSW,237,0.0,0.0,87,0.00,CLR,,0.00,WeatherDisplay:10.37,2013-08-13 10:42:00,
2013-08-13 06:47:00,72.7,68.6,30.03,WSW,237,0.0,0.0,87,0.00,CLR,,0.00,WeatherDisplay:10.37,2013-08-13 10:47:00,
2013-08-13 06:52:00,72.5,68.4,30.03,WSW,237,0.0,0.0,87,0.00,CLR,,0.00,WeatherDisplay:10.37,2013-08-13 10:52:00,
2013-08-13 06:57:00,72.5,68.4,30.03,WSW,237,0.0,0.0,87,0.00,CLR,,0.00,WeatherDisplay:10.37,2013-08-13 10:57:00,
2013-08-13 07:02:00,72.7,68.6,30.05,WSW,237,0.0,0.0,87,0.00,CLR,,0.00,WeatherDisplay:10.37,2013-08-13 11:02:00,
2013-08-13 07:07:00,72.9,68.8,30.05,WSW,237,0.0,0.0,87,0.00,CLR,,0.00,WeatherDisplay:10.37,2013-08-13 11:07:00,
2013-08-13 07:12:00,73.0,68.9,30.05,WSW,237,0.0,0.0,87,0.00,CLR,,0.00,WeatherDisplay:10.37,2013-08-13 11:12:00,
2013-08-13 07:17:00,73.0,68.9,30.05,WSW,237,0.0,0.0,87,0.00,CLR,,0.00,WeatherDisplay:10.37,2013-08-13 11:17:00,
2013-08-13 07:22:00,73.2,69.1,30.05,WSW,237,0.0,0.0,87,0.00,CLR,,0.00,WeatherDisplay:10.37,2013-08-13 11:22:00,
2013-08-13 07:27:00,73.4,69.3,30.05,WSW,237,0.0,0.0,87,0.00,CLR,,0.00,WeatherDisplay:10.37,2013-08-13 11:27:00,
2013-08-13 07:32:00,73.6,69.5,30.05,WSW,237,0.0,0.0,87,0.00,CLR,,0.00,WeatherDisplay:10.37,2013-08-13 11:32:00,
2013-08-13 07:37:00,73.9,69.8,30.05,WSW,237,0.0,0.0,87,0.00,CLR,,0.00,WeatherDisplay:10.37,2013-08-13 11:37:00,
2013-08-13 07:42:00,74.1,70.0,30.05,WSW,237,0.0,0.0,87,0.00,CLR,,0.00,WeatherDisplay:10.37,2013-08-13 11:42:00,
2013-08-13 07:47:00,74.5,70.4,30.05,WSW,237,0.0,0.0,87,0.00,CLR,,0.00,WeatherDisplay:10.37,2013-08-13 11:47:00,
2013-08-13 07:52:00,74.8,70.7,30.05,SSW,213,3.5,3.5,87,0.00,CLR,,0.00,WeatherDisplay:10.37,2013-08-13 11:52:00,
2013-08-13 07:57:00,75.0,70.9,30.05,SSW,213,3.5,3.5,87,0.00,CLR,,0.00,WeatherDisplay:10.37,2013-08-13 11:57:00,
2013-08-13 08:03:00,75.6,70.4,30.05,SW,225,4.0,0.0,84,0.00,CLR,,0.00,WeatherDisplay:10.37,2013-08-13 12:03:00,
2013-08-13 08:08:00,76.1,70.9,30.05,SW,220,3.5,3.5,84,0.00,CLR,,0.00,WeatherDisplay:10.37,2013-08-13 12:08:00,
2013-08-13 08:13:00,76.6,71.4,30.05,SSW,213,5.8,5.8,84,0.00,CLR,,0.00,WeatherDisplay:10.37,2013-08-13 12:13:00,
2013-08-13 08:18:00,77.0,71.8,30.05,SW,228,5.8,5.8,84,0.00,CLR,,0.00,WeatherDisplay:10.37,2013-08-13 12:18:00,
2013-08-13 08:23:00,78.1,72.8,30.05,SW,223,5.8,5.8,84,0.00,CLR,,0.00,WeatherDisplay:10.37,2013-08-13 12:23:00,
2013-08-13 08:28:00,79.2,73.9,30.05,SSW,210,2.3,0.0,84,0.00,CLR,,0.00,WeatherDisplay:10.37,2013-08-13 12:28:00,
2013-08-13 08:33:00,79.9,74.6,30.05,South,176,5.8,5.8,84,0.00,CLR,,0.00,WeatherDisplay:10.37,2013-08-13 12:33:00,
2013-08-13 08:38:00,81.0,75.7,30.05,SW,216,3.5,3.5,84,0.00,CLR,,0.00,WeatherDisplay:10.37,2013-08-13 12:38:00,
2013-08-13 08:43:00,81.5,76.2,30.05,SW,235,5.8,5.8,84,0.00,CLR,,0.00,WeatherDisplay:10.37,2013-08-13 12:43:00,
2013-08-13 08:48:00,82.0,76.7,30.05,SW,234,3.5,3.5,84,0.00,CLR,,0.00,WeatherDisplay:10.37,2013-08-13 12:48:00,
2013-08-13 08:53:00,82.4,77.1,30.05,WSW,238,3.5,4.0,84,0.00,CLR,,0.00,WeatherDisplay:10.37,2013-08-13 12:53:00,
2013-08-13 08:58:00,82.9,77.6,30.05,SSW,194,3.5,3.5,84,0.00,CLR,,0.00,WeatherDisplay:10.37,2013-08-13 12:58:00,
2013-08-13 09:03:00,83.5,74.3,30.05,SW,225,5.8,5.8,74,0.00,CLR,,0.00,WeatherDisplay:10.37,2013-08-13 13:03:00,
2013-08-13 09:08:00,83.8,74.7,30.05,SW,220,6.3,6.3,74,0.00,CLR,,0.00,WeatherDisplay:10.37,2013-08-13 13:08:00,
2013-08-13 09:13:00,84.0,74.8,30.05,SSW,198,5.8,5.8,74,0.00,CLR,,0.00,WeatherDisplay:10.37,2013-08-13 13:13:00,
2013-08-13 09:18:00,84.4,75.2,30.05,SSW,206,5.8,5.8,74,0.00,CLR,,0.00,WeatherDisplay:10.37,2013-08-13 13:18:00,
2013-08-13 09:23:00,84.9,75.7,30.05,SW,215,4.6,4.6,74,0.00,CLR,,0.00,WeatherDisplay:10.37,2013-08-13 13:23:00,
2013-08-13 09:28:00,85.1,75.9,30.05,WSW,240,5.8,5.8,74,0.00,CLR,,0.00,WeatherDisplay:10.37,2013-08-13 13:28:00,
2013-08-13 09:33:00,85.1,75.9,30.05,WNW,295,5.8,5.8,74,0.00,CLR,,0.00,WeatherDisplay:10.37,2013-08-13 13:33:00,
2013-08-13 09:38:00,85.5,76.2,30.05,SSW,193,3.5,0.0,74,0.00,CLR,,0.00,WeatherDisplay:10.37,2013-08-13 13:38:00,
2013-08-13 09:43:00,85.8,76.6,30.05,West,262,3.5,3.5,74,0.00,CLR,,0.00,WeatherDisplay:10.37,2013-08-13 13:43:00,
2013-08-13 09:48:00,86.2,76.9,30.05,WSW,250,3.5,3.5,74,0.00,CLR,,0.00,WeatherDisplay:10.37,2013-08-13 13:48:00,
2013-08-13 09:53:00,86.5,77.3,30.05,SW,215,5.8,5.8,74,0.00,CLR,,0.00,WeatherDisplay:10.37,2013-08-13 13:53:00,
2013-08-13 09:58:00,86.9,77.6,30.05,West,277,3.5,3.6,74,0.00,CLR,,0.00,WeatherDisplay:10.37,2013-08-13 13:58:00,
2013-08-13 10:03:00,88.0,75.6,30.05,WNW,294,4.9,4.9,67,0.00,CLR,,0.00,WeatherDisplay:10.37,2013-08-13 14:03:00,
2013-08-13 10:08:00,88.5,76.2,30.05,SW,217,7.6,7.6,67,0.00,CLR,,0.00,WeatherDisplay:10.37,2013-08-13 14:08:00,
2013-08-13 10:13:00,88.5,76.2,30.05,WSW,247,5.8,5.8,67,0.00,CLR,,0.00,WeatherDisplay:10.37,2013-08-13 14:13:00,
2013-08-13 10:18:00,88.9,76.5,30.05,SW,229,8.1,8.1,67,0.00,CLR,,0.00,WeatherDisplay:10.37,2013-08-13 14:18:00,
2013-08-13 10:23:00,88.7,76.3,30.05,SSW,194,8.1,8.1,67,0.00,CLR,,0.00,WeatherDisplay:10.37,2013-08-13 14:23:00,
2013-08-13 10:28:00,88.9,76.5,30.05,West,276,4.6,4.6,67,0.00,CLR,,0.00,WeatherDisplay:10.37,2013-08-13 14:28:00,
2013-08-13 10:33:00,89.4,77.0,30.05,WSW,249,6.9,6.9,67,0.00,CLR,,0.00,WeatherDisplay:10.37,2013-08-13 14:33:00,
2013-08-13 10:38:00,89.6,77.2,30.05,WNW,285,3.5,3.5,67,0.00,CLR,,0.00,WeatherDisplay:10.37,2013-08-13 14:38:00,
2013-08-13 10:43:00,90.7,78.2,30.05,NW,323,3.5,3.6,67,0.00,CLR,,0.00,WeatherDisplay:10.37,2013-08-13 14:43:00,
2013-08-13 10:48:00,91.2,78.7,30.05,SW,219,5.8,5.8,67,0.00,CLR,,0.00,WeatherDisplay:10.37,2013-08-13 14:48:00,
2013-08-13 10:53:00,91.4,78.9,30.05,West,268,3.6,3.6,67,0.00,CLR,,0.00,WeatherDisplay:10.37,2013-08-13 14:53:00,
2013-08-13 10:58:00,91.2,78.7,30.05,WNW,302,5.8,5.8,67,0.00,CLR,,0.00,WeatherDisplay:10.37,2013-08-13 14:58:00,
2013-08-13 11:03:00,90.9,74.5,30.05,South,190,5.8,5.8,59,0.00,CLR,,0.00,WeatherDisplay:10.37,2013-08-13 15:03:00,
2013-08-13 11:08:00,90.9,74.5,30.05,SW,231,5.8,0.0,59,0.00,CLR,,0.00,WeatherDisplay:10.37,2013-08-13 15:08:00,
2013-08-13 11:13:00,90.9,74.5,30.05,WSW,254,4.6,4.6,59,0.00,CLR,,0.00,WeatherDisplay:10.37,2013-08-13 15:13:00,
2013-08-13 11:18:00,91.6,75.2,30.05,WSW,253,6.3,6.3,59,0.00,CLR,,0.00,WeatherDisplay:10.37,2013-08-13 15:18:00,
2013-08-13 11:23:00,91.8,75.4,30.05,ESE,107,5.8,5.8,59,0.00,CLR,,0.00,WeatherDisplay:10.37,2013-08-13 15:23:00,
2013-08-13 11:28:00,91.2,74.9,30.05,West,259,3.5,3.5,59,0.00,CLR,,0.00,WeatherDisplay:10.37,2013-08-13 15:28:00,
2013-08-13 11:33:00,91.0,74.7,30.05,South,177,4.0,4.0,59,0.00,CLR,,0.00,WeatherDisplay:10.37,2013-08-13 15:33:00,
2013-08-13 11:38:00,91.2,74.9,30.05,WSW,243,5.8,5.8,59,0.00,CLR,,0.00,WeatherDisplay:10.37,2013-08-13 15:38:00,
2013-08-13 11:43:00,92.1,75.7,30.05,SSW,213,3.5,3.5,59,0.00,CLR,,0.00,WeatherDisplay:10.37,2013-08-13 15:43:00,
2013-08-13 11:48:00,92.7,76.2,30.05,West,270,3.5,3.5,59,0.00,CLR,,0.00,WeatherDisplay:10.37,2013-08-13 15:48:00,
2013-08-13 11:53:00,92.3,75.9,30.05,SSW,197,5.8,5.8,59,0.00,CLR,,0.00,WeatherDisplay:10.37,2013-08-13 15:53:00,
2013-08-13 11:58:00,92.3,75.9,30.05,West,275,8.1,8.1,59,0.00,CLR,,0.00,WeatherDisplay:10.37,2013-08-13 15:58:00,
2013-08-13 12:03:00,92.3,72.7,30.05,ESE,110,3.5,3.5,53,0.00,FEW,,0.00,WeatherDisplay:10.37,2013-08-13 16:03:00,
2013-08-13 12:08:00,92.7,73.0,30.05,NNW,340,5.8,5.8,53,0.00,FEW,,0.00,WeatherDisplay:10.37,2013-08-13 16:08:00,
2013-08-13 12:13:00,92.3,72.7,30.05,WNW,291,3.5,3.5,53,0.00,FEW,,0.00,WeatherDisplay:10.37,2013-08-13 16:13:00,
2013-08-13 12:18:00,92.1,72.5,30.05,ESE,114,3.5,3.5,53,0.00,FEW,,0.00,WeatherDisplay:10.37,2013-08-13 16:18:00,
2013-08-13 12:23:00,92.5,72.9,30.05,South,169,5.8,5.8,53,0.00,FEW,,0.00,WeatherDisplay:10.37,2013-08-13 16:23:00,
2013-08-13 12:28:00,93.2,73.5,30.05,South,179,3.5,3.5,53,0.00,FEW,,0.00,WeatherDisplay:10.37,2013-08-13 16:28:00,
2013-08-13 12:33:00,93.4,73.7,30.05,SSW,204,5.8,5.8,53,0.00,FEW,,0.00,WeatherDisplay:10.37,2013-08-13 16:33:00,
2013-08-13 12:38:00,93.4,73.7,30.05,South,177,3.5,3.5,53,0.00,FEW,,0.00,WeatherDisplay:10.37,2013-08-13 16:38:00,
2013-08-13 12:43:00,93.7,74.0,30.05,WSW,253,5.8,0.0,53,0.00,FEW,,0.00,WeatherDisplay:10.37,2013-08-13 16:43:00,
2013-08-13 12:48:00,94.1,74.4,30.05,SW,220,5.8,5.8,53,0.00,FEW,,0.00,WeatherDisplay:10.37,2013-08-13 16:48:00,
2013-08-13 12:53:00,93.7,74.0,30.05,SW,216,3.6,0.0,53,0.00,FEW,,0.00,WeatherDisplay:10.37,2013-08-13 16:53:00,
2013-08-13 12:58:00,93.9,74.2,30.05,SSE,166,8.1,8.1,53,0.00,FEW,,0.00,WeatherDisplay:10.37,2013-08-13 16:58:00,
2013-08-13 13:03:00,93.7,71.7,30.03,South,182,8.1,8.1,49,0.00,FEW,,0.00,WeatherDisplay:10.37,2013-08-13 17:03:00,
2013-08-13 13:08:00,94.5,72.3,30.03,South,178,5.8,5.8,49,0.00,FEW,,0.00,WeatherDisplay:10.37,2013-08-13 17:08:00,
2013-08-13 13:14:00,94.6,72.5,30.03,South,187,5.8,5.8,49,0.00,FEW,,0.00,WeatherDisplay:10.37,2013-08-13 17:14:00,
2013-08-13 13:19:00,95.4,73.2,30.03,SW,227,8.1,8.1,49,0.00,FEW,,0.00,WeatherDisplay:10.37,2013-08-13 17:19:00,
2013-08-13 13:24:00,95.4,73.2,30.03,SSW,192,3.5,3.5,49,0.00,FEW,,0.00,WeatherDisplay:10.37,2013-08-13 17:24:00,
2013-08-13 13:29:00,95.7,73.5,30.03,West,274,5.8,5.8,49,0.00,FEW,,0.00,WeatherDisplay:10.37,2013-08-13 17:29:00,
2013-08-13 13:34:00,95.9,73.7,30.03,WSW,256,8.1,8.1,49,0.00,FEW,,0.00,WeatherDisplay:10.37,2013-08-13 17:34:00,
2013-08-13 13:39:00,95.7,73.5,30.03,South,178,5.8,5.8,49,0.00,FEW,,0.00,WeatherDisplay:10.37,2013-08-13 17:39:00,
2013-08-13 13:44:00,95.4,73.2,30.03,NNW,334,5.8,5.8,49,0.00,FEW,,0.00,WeatherDisplay:10.37,2013-08-13 17:44:00,
2013-08-13 13:49:00,96.1,73.8,30.03,SSE,152,4.6,4.6,49,0.00,FEW,,0.00,WeatherDisplay:10.37,2013-08-13 17:49:00,
2013-08-13 13:54:00,96.6,74.3,30.03,WNW,286,6.3,6.3,49,0.00,FEW,,0.00,WeatherDisplay:10.37,2013-08-13 17:54:00,
2013-08-13 13:59:00,97.7,75.3,30.03,NNW,341,4.6,4.6,49,0.00,FEW,,0.00,WeatherDisplay:10.37,2013-08-13 17:59:00,
2013-08-13 14:04:00,97.9,74.2,30.01,WSW,247,3.5,0.0,47,0.00,SCT,,0.00,WeatherDisplay:10.37,2013-08-13 18:04:00,
2013-08-13 14:09:00,98.1,74.4,30.01,SSW,192,5.8,5.8,47,0.00,SCT,,0.00,WeatherDisplay:10.37,2013-08-13 18:09:00,
2013-08-13 14:14:00,98.6,74.9,30.01,WSW,239,5.8,5.8,47,0.00,SCT,,0.00,WeatherDisplay:10.37,2013-08-13 18:14:00,
2013-08-13 14:19:00,98.1,74.4,30.01,NW,316,5.8,5.8,47,0.00,SCT,,0.00,WeatherDisplay:10.37,2013-08-13 18:19:00,
2013-08-13 14:24:00,97.3,73.7,30.01,West,275,3.5,3.6,47,0.00,SCT,,0.00,WeatherDisplay:10.37,2013-08-13 18:24:00,
2013-08-13 14:29:00,95.7,72.3,30.01,WNW,295,3.5,0.0,47,0.00,SCT,,0.00,WeatherDisplay:10.37,2013-08-13 18:29:00,
2013-08-13 14:34:00,95.7,72.3,30.01,WNW,294,3.5,0.0,47,0.00,SCT,,0.00,WeatherDisplay:10.37,2013-08-13 18:34:00,
2013-08-13 14:39:00,96.6,73.1,30.01,NW,312,3.5,3.6,47,0.00,SCT,,0.00,WeatherDisplay:10.37,2013-08-13 18:39:00,
2013-08-13 14:44:00,97.7,74.1,30.01,WNW,284,5.8,5.8,47,0.00,SCT,,0.00,WeatherDisplay:10.37,2013-08-13 18:44:00,
2013-08-13 14:49:00,98.4,74.7,30.01,WNW,285,5.8,5.8,47,0.00,SCT,,0.00,WeatherDisplay:10.37,2013-08-13 18:49:00,
2013-08-13 14:54:00,97.9,74.2,30.01,NW,305,4.6,4.6,47,0.00,SCT,,0.00,WeatherDisplay:10.37,2013-08-13 18:54:00,
2013-08-13 14:59:00,97.3,73.7,30.01,WNW,291,5.8,5.8,47,0.00,SCT,,0.00,WeatherDisplay:10.37,2013-08-13 18:59:00,
2013-08-13 15:04:00,97.9,73.6,29.99,NW,311,4.9,4.9,46,0.00,BKN,,0.00,WeatherDisplay:10.37,2013-08-13 19:04:00,
2013-08-13 15:09:00,98.4,74.1,29.99,WNW,302,3.1,0.0,46,0.00,BKN,,0.00,WeatherDisplay:10.37,2013-08-13 19:09:00,
2013-08-13 15:14:00,98.2,73.9,29.99,West,263,2.3,2.3,46,0.00,BKN,,0.00,WeatherDisplay:10.37,2013-08-13 19:14:00,
2013-08-13 15:19:00,97.2,72.9,29.99,SE,135,5.8,5.8,46,0.00,BKN,,0.00,WeatherDisplay:10.37,2013-08-13 19:19:00,
2013-08-13 15:24:00,96.3,72.1,29.99,WSW,255,5.8,5.8,46,0.00,BKN,,0.00,WeatherDisplay:10.37,2013-08-13 19:24:00,
2013-08-13 15:29:00,95.2,71.1,29.99,SW,220,0.0,0.0,46,0.00,BKN,,0.00,WeatherDisplay:10.37,2013-08-13 19:29:00,
2013-08-13 15:34:00,95.4,71.3,29.99,West,281,2.3,2.3,46,0.00,BKN,,0.00,WeatherDisplay:10.37,2013-08-13 19:34:00,
2013-08-13 15:39:00,96.6,72.4,29.99,SSE,147,5.8,5.8,46,0.00,BKN,,0.00,WeatherDisplay:10.37,2013-08-13 19:39:00,
2013-08-13 15:44:00,96.6,72.4,29.99,SSW,196,5.8,5.8,46,0.00,BKN,,0.00,WeatherDisplay:10.37,2013-08-13 19:44:00,
2013-08-13 15:49:00,96.1,72.0,29.99,South,170,4.6,4.6,46,0.00,BKN,,0.00,WeatherDisplay:10.37,2013-08-13 19:49:00,
2013-08-13 15:54:00,96.4,72.3,29.99,SW,230,4.9,4.9,46,0.00,BKN,,0.00,WeatherDisplay:10.37,2013-08-13 19:54:00,
2013-08-13 15:59:00,97.2,72.9,29.99,West,281,2.3,0.0,46,0.00,BKN,,0.00,WeatherDisplay:10.37,2013-08-13 19:59:00,
2013-08-13 16:04:00,97.0,72.8,29.99,NNW,333,2.3,0.0,46,0.00,BKN,,0.00,WeatherDisplay:10.37,2013-08-13 20:04:00,
2013-08-13 16:09:00,96.4,72.3,29.99,NNE,15,0.0,0.0,46,0.00,BKN,,0.00,WeatherDisplay:10.37,2013-08-13 20:09:00,
2013-08-13 16:14:00,96.4,72.3,29.99,WNW,287,0.0,0.0,46,0.00,BKN,,0.00,WeatherDisplay:10.37,2013-08-13 20:14:00,
2013-08-13 16:19:00,97.3,73.1,29.99,SSW,206,5.4,5.4,46,0.00,BKN,,0.00,WeatherDisplay:10.37,2013-08-13 20:19:00,
2013-08-13 16:24:00,97.3,73.1,29.99,SSW,203,5.8,5.8,46,0.00,BKN,,0.00,WeatherDisplay:10.37,2013-08-13 20:24:00,
2013-08-13 16:29:00,97.0,72.8,29.99,SE,133,5.8,5.8,46,0.00,BKN,,0.00,WeatherDisplay:10.37,2013-08-13 20:29:00,
2013-08-13 16:34:00,96.8,72.6,29.99,SE,129,3.5,3.5,46,0.00,BKN,,0.00,WeatherDisplay:10.37,2013-08-13 20:34:00,
2013-08-13 16:39:00,96.6,72.4,29.99,SE,140,5.8,5.8,46,0.00,BKN,,0.00,WeatherDisplay:10.37,2013-08-13 20:39:00,
2013-08-13 16:44:00,97.0,72.8,29.99,SSE,164,4.6,4.6,46,0.00,BKN,,0.00,WeatherDisplay:10.37,2013-08-13 20:44:00,
2013-08-13 16:49:00,97.3,73.1,29.99,SSE,167,5.8,5.8,46,0.00,BKN,,0.00,WeatherDisplay:10.37,2013-08-13 20:49:00,
2013-08-13 16:54:00,97.5,73.3,29.99,ESE,107,3.5,3.5,46,0.00,BKN,,0.00,WeatherDisplay:10.37,2013-08-13 20:54:00,
2013-08-13 16:59:00,97.7,73.4,29.99,SSE,152,5.8,5.8,46,0.00,BKN,,0.00,WeatherDisplay:10.37,2013-08-13 20:59:00,
2013-08-13 17:04:00,96.4,68.9,29.95,South,171,5.8,5.8,41,0.00,CLR,,0.00,WeatherDisplay:10.37,2013-08-13 21:04:00,
2013-08-13 17:09:00,96.4,68.9,29.95,SSE,157,8.1,8.1,41,0.00,CLR,,0.00,WeatherDisplay:10.37,2013-08-13 21:09:00,
2013-08-13 17:14:00,96.3,68.7,29.95,SSE,162,5.8,5.8,41,0.00,CLR,,0.00,WeatherDisplay:10.37,2013-08-13 21:14:00,
2013-08-13 17:19:00,95.0,67.6,29.95,SSE,150,3.5,3.5,41,0.00,CLR,,0.00,WeatherDisplay:10.37,2013-08-13 21:19:00,
2013-08-13 17:24:00,94.5,67.1,29.95,ESE,103,4.6,4.6,41,0.00,CLR,,0.00,WeatherDisplay:10.37,2013-08-13 21:24:00,
2013-08-13 17:30:00,93.7,66.5,29.95,ESE,114,5.8,5.8,41,0.00,CLR,,0.00,WeatherDisplay:10.37,2013-08-13 21:30:00,
2013-08-13 17:35:00,93.4,66.2,29.95,South,185,3.5,4.0,41,0.00,CLR,,0.00,WeatherDisplay:10.37,2013-08-13 21:35:00,
2013-08-13 17:40:00,93.2,66.0,29.95,SSW,213,0.0,0.0,41,0.00,CLR,,0.00,WeatherDisplay:10.37,2013-08-13 21:40:00,
2013-08-13 17:45:00,92.8,65.7,29.95,NNE,14,0.0,0.0,41,0.00,CLR,,0.00,WeatherDisplay:10.37,2013-08-13 21:45:00,
2013-08-13 17:50:00,93.0,65.8,29.95,West,267,5.8,5.8,41,0.00,CLR,,0.00,WeatherDisplay:10.37,2013-08-13 21:50:00,
2013-08-13 17:55:00,93.2,66.0,29.95,WSW,243,3.5,3.5,41,0.00,CLR,,0.00,WeatherDisplay:10.37,2013-08-13 21:55:00,
2013-08-13 18:00:00,93.2,66.0,29.95,SSW,213,4.0,4.0,41,0.00,CLR,,0.00,WeatherDisplay:10.37,2013-08-13 22:00:00,
2013-08-13 18:05:00,93.0,65.1,29.94,WSW,257,3.5,3.5,40,0.00,CLR,,0.00,WeatherDisplay:10.37,2013-08-13 22:05:00,
2013-08-13 18:10:00,93.0,65.1,29.94,West,268,0.0,0.0,40,0.00,CLR,,0.00,WeatherDisplay:10.37,2013-08-13 22:10:00,
2013-08-13 18:15:00,93.0,65.1,29.94,SW,235,2.3,0.0,40,0.00,CLR,,0.00,WeatherDisplay:10.37,2013-08-13 22:15:00,
2013-08-13 18:20:00,92.8,65.0,29.94,WSW,254,6.9,6.9,40,0.00,CLR,,0.00,WeatherDisplay:10.37,2013-08-13 22:20:00,
2013-08-13 18:25:00,92.8,65.0,29.94,WSW,243,3.5,3.5,40,0.00,CLR,,0.00,WeatherDisplay:10.37,2013-08-13 22:25:00,
2013-08-13 18:30:00,92.5,64.6,29.94,SW,216,5.8,5.8,40,0.00,CLR,,0.00,WeatherDisplay:10.37,2013-08-13 22:30:00,
2013-08-13 18:35:00,92.1,64.3,29.94,ENE,68,5.8,5.8,40,0.00,CLR,,0.00,WeatherDisplay:10.37,2013-08-13 22:35:00,
2013-08-13 18:40:00,91.0,63.4,29.94,ENE,70,5.8,5.8,40,0.00,CLR,,0.00,WeatherDisplay:10.37,2013-08-13 22:40:00,
2013-08-13 18:45:00,90.3,62.7,29.94,ENE,77,6.9,6.9,40,0.00,CLR,,0.00,WeatherDisplay:10.37,2013-08-13 22:45:00,
2013-08-13 18:50:00,89.6,62.1,29.94,ESE,119,4.6,4.6,40,0.00,CLR,,0.00,WeatherDisplay:10.37,2013-08-13 22:50:00,
2013-08-13 18:55:00,89.1,61.6,29.94,East,92,5.8,5.8,40,0.00,CLR,,0.00,WeatherDisplay:10.37,2013-08-13 22:55:00,
2013-08-13 19:00:00,88.5,61.1,29.94,SE,128,9.2,9.2,40,0.00,CLR,,0.00,WeatherDisplay:10.37,2013-08-13 23:00:00,
2013-08-13 19:05:00,88.2,62.8,29.93,ESE,103,5.8,5.8,43,0.00,CLR,,0.00,WeatherDisplay:10.37,2013-08-13 23:05:00,
2013-08-13 19:10:00,87.9,62.6,29.93,East,91,5.0,6.0,43,0.00,CLR,,0.00,WeatherDisplay:10.37,2013-08-13 23:10:00,
2013-08-13 19:15:00,87.6,62.4,29.93,East,80,5.0,6.0,43,0.00,CLR,,0.00,WeatherDisplay:10.37,2013-08-13 23:15:00,
2013-08-13 19:20:00,87.4,62.2,29.93,East,79,5.0,8.0,43,0.00,CLR,,0.00,WeatherDisplay:10.37,2013-08-13 23:20:00,
2013-08-13 19:25:00,87.1,61.9,29.93,ENE,71,3.0,6.0,43,0.00,CLR,,0.00,WeatherDisplay:10.37,2013-08-13 23:25:00,
2013-08-13 19:30:00,86.9,61.7,29.93,East,91,4.6,4.6,43,0.00,CLR,,0.00,WeatherDisplay:10.37,2013-08-13 23:30:00,
2013-08-13 19:35:00,86.5,61.4,29.93,East,86,2.0,4.0,43,0.00,CLR,,0.00,WeatherDisplay:10.37,2013-08-13 23:35:00,
2013-08-13 19:40:00,86.3,61.2,29.93,ENE,59,3.0,4.0,43,0.00,CLR,,0.00,WeatherDisplay:10.37,2013-08-13 23:40:00,
2013-08-13 19:45:00,86.0,60.9,29.93,ENE,63,3.5,3.5,43,0.00,CLR,,0.00,WeatherDisplay:10.37,2013-08-13 23:45:00,
2013-08-13 19:50:00,85.8,60.7,29.93,East,86,3.5,4.0,43,0.00,CLR,,0.00,WeatherDisplay:10.37,2013-08-13 23:50:00,
2013-08-13 19:55:00,85.5,60.4,29.93,East,82,3.5,3.5,43,0.00,CLR,,0.00,WeatherDisplay:10.37,2013-08-13 23:55:00,
2013-08-13 20:00:00,85.1,60.1,29.93,SSE,153,2.3,2.3,43,0.00,CLR,,0.00,WeatherDisplay:10.37,2013-08-14 00:00:00,
2013-08-13 20:05:00,84.7,66.8,29.94,SE,146,1.0,4.0,55,0.00,BKN,,0.00,WeatherDisplay:10.37,2013-08-14 00:05:00,
2013-08-13 20:10:00,84.4,66.4,29.94,SE,125,3.5,3.5,55,0.00,BKN,,0.00,WeatherDisplay:10.37,2013-08-14 00:10:00,
2013-08-13 20:15:00,84.2,66.3,29.94,SE,125,0.0,0.0,55,0.00,BKN,,0.00,WeatherDisplay:10.37,2013-08-14 00:15:00,
2013-08-13 20:20:00,84.0,66.1,29.94,SE,125,0.0,0.0,55,0.00,BKN,,0.00,WeatherDisplay:10.37,2013-08-14 00:20:00,
2013-08-13 20:25:00,83.8,65.9,29.94,SE,125,0.0,0.0,55,0.00,BKN,,0.00,WeatherDisplay:10.37,2013-08-14 00:25:00,
2013-08-13 20:30:00,83.7,65.8,29.94,SE,125,0.0,0.0,55,0.00,BKN,,0.00,WeatherDisplay:10.37,2013-08-14 00:30:00,
2013-08-13 20:35:00,83.6,65.7,29.94,SE,125,0.0,0.0,55,0.00,BKN,,0.00,WeatherDisplay:10.37,2013-08-14 00:35:00,
2013-08-13 20:40:00,83.5,65.6,29.94,SE,125,0.0,0.0,55,0.00,BKN,,0.00,WeatherDisplay:10.37,2013-08-14 00:40:00,
2013-08-13 20:45:00,83.1,65.3,29.94,SE,125,0.0,0.0,55,0.00,BKN,,0.00,WeatherDisplay:10.37,2013-08-14 00:45:00,
2013-08-13 20:50:00,83.1,65.3,29.94,SE,125,0.0,0.0,55,0.00,BKN,,0.00,WeatherDisplay:10.37,2013-08-14 00:50:00,
2013-08-13 20:55:00,83.1,65.3,29.94,SSE,157,3.5,3.5,55,0.00,BKN,,0.00,WeatherDisplay:10.37,2013-08-14 00:55:00,
2013-08-13 21:00:00,83.1,65.3,29.94,South,170,3.0,6.0,55,0.00,BKN,,0.00,WeatherDisplay:10.37,2013-08-14 01:00:00,
2013-08-13 21:05:00,83.1,65.3,29.94,South,171,3.5,4.5,55,0.00,BKN,,0.00,WeatherDisplay:10.37,2013-08-14 01:05:00,
2013-08-13 21:10:00,83.1,65.3,29.94,South,181,3.5,3.5,55,0.00,BKN,,0.00,WeatherDisplay:10.37,2013-08-14 01:10:00,
2013-08-13 21:15:00,83.1,65.3,29.94,South,183,2.0,8.0,55,0.00,BKN,,0.00,WeatherDisplay:10.37,2013-08-14 01:15:00,
2013-08-13 21:20:00,83.1,65.3,29.94,SSW,196,5.8,5.8,55,0.00,BKN,,0.00,WeatherDisplay:10.37,2013-08-14 01:20:00,
2013-08-13 21:25:00,82.9,65.1,29.94,South,184,6.0,8.0,55,0.00,BKN,,0.00,WeatherDisplay:10.37,2013-08-14 01:25:00,
2013-08-13 21:30:00,82.9,65.1,29.94,South,190,5.0,8.0,55,0.00,BKN,,0.00,WeatherDisplay:10.37,2013-08-14 01:30:00,
2013-08-13 21:35:00,82.8,64.9,29.94,South,178,3.5,3.5,55,0.00,BKN,,0.00,WeatherDisplay:10.37,2013-08-14 01:35:00,
2013-08-13 21:40:00,82.6,64.8,29.94,SW,219,5.8,5.8,55,0.00,BKN,,0.00,WeatherDisplay:10.37,2013-08-14 01:40:00,
2013-08-13 21:45:00,82.6,64.8,29.94,SSW,195,3.0,6.0,55,0.00,BKN,,0.00,WeatherDisplay:10.37,2013-08-14 01:45:00,
2013-08-13 21:50:00,82.4,64.6,29.94,SSW,213,5.8,5.8,55,0.00,BKN,,0.00,WeatherDisplay:10.37,2013-08-14 01:50:00,
2013-08-13 21:55:00,82.4,64.6,29.94,South,186,5.8,5.8,55,0.00,BKN,,0.00,WeatherDisplay:10.37,2013-08-14 01:55:00,
2013-08-13 22:00:00,82.2,64.4,29.94,SSW,211,5.8,5.8,55,0.00,BKN,,0.00,WeatherDisplay:10.37,2013-08-14 02:00:00,
2013-08-13 22:05:00,82.0,70.0,29.99,WSW,254,5.8,5.8,67,0.00,CLR,,0.00,WeatherDisplay:10.37,2013-08-14 02:05:00,
2013-08-13 22:10:00,82.0,70.0,29.99,SSW,200,3.5,3.6,67,0.00,CLR,,0.00,WeatherDisplay:10.37,2013-08-14 02:10:00,
2013-08-13 22:15:00,81.9,69.8,29.99,SSW,203,3.0,6.0,67,0.00,CLR,,0.00,WeatherDisplay:10.37,2013-08-14 02:15:00,
2013-08-13 22:20:00,81.9,69.8,29.99,SSW,198,3.5,3.5,67,0.00,CLR,,0.00,WeatherDisplay:10.37,2013-08-14 02:20:00,
2013-08-13 22:25:00,81.7,69.7,29.99,SSW,202,5.0,6.0,67,0.00,CLR,,0.00,WeatherDisplay:10.37,2013-08-14 02:25:00,
2013-08-13 22:30:00,81.7,69.7,29.99,SW,224,5.8,5.8,67,0.00,CLR,,0.00,WeatherDisplay:10.37,2013-08-14 02:30:00,
2013-08-13 22:35:00,81.7,69.7,29.99,SW,228,5.8,5.8,67,0.00,CLR,,0.00,WeatherDisplay:10.37,2013-08-14 02:35:00,
2013-08-13 22:40:00,81.7,69.7,29.99,SSW,199,3.0,6.0,67,0.00,CLR,,0.00,WeatherDisplay:10.37,2013-08-14 02:40:00,
2013-08-13 22:45:00,81.5,69.5,29.99,SSW,203,3.0,6.0,67,0.00,CLR,,0.00,WeatherDisplay:10.37,2013-08-14 02:45:00,
2013-08-13 22:50:00,81.5,69.5,29.99,WSW,239,8.1,8.1,67,0.00,CLR,,0.00,WeatherDisplay:10.37,2013-08-14 02:50:00,
2013-08-13 22:55:00,81.5,69.5,29.99,SW,217,5.0,8.0,67,0.00,CLR,,0.00,WeatherDisplay:10.37,2013-08-14 02:55:00,
2013-08-13 23:00:00,81.3,69.3,29.99,SSW,208,3.6,3.6,67,0.00,CLR,,0.00,WeatherDisplay:10.37,2013-08-14 03:00:00,
2013-08-13 23:05:00,81.3,71.0,30.01,SW,220,6.3,6.3,71,0.00,CLR,,0.00,WeatherDisplay:10.37,2013-08-14 03:05:00,
2013-08-13 23:10:00,81.1,70.8,30.01,SSW,206,6.0,9.0,71,0.00,CLR,,0.00,WeatherDisplay:10.37,2013-08-14 03:10:00,
2013-08-13 23:15:00,81.1,70.8,30.01,SSW,207,8.1,8.1,71,0.00,CLR,,0.00,WeatherDisplay:10.37,2013-08-14 03:15:00,
2013-08-13 23:20:00,81.1,70.8,30.01,SW,218,3.0,8.0,71,0.00,CLR,,0.00,WeatherDisplay:10.37,2013-08-14 03:20:00,
2013-08-13 23:25:00,81.0,70.7,30.01,South,179,5.8,5.8,71,0.00,CLR,,0.00,WeatherDisplay:10.37,2013-08-14 03:25:00,
2013-08-13 23:30:00,81.0,70.7,30.01,SW,235,6.9,6.9,71,0.00,CLR,,0.00,WeatherDisplay:10.37,2013-08-14 03:30:00,
2013-08-13 23:35:00,81.0,70.7,30.01,SSW,213,3.0,6.0,71,0.00,CLR,,0.00,WeatherDisplay:10.37,2013-08-14 03:35:00,
2013-08-13 23:40:00,80.8,70.5,30.01,SW,219,2.0,5.0,71,0.00,CLR,,0.00,WeatherDisplay:10.37,2013-08-14 03:40:00,
2013-08-13 23:45:00,80.8,70.5,30.01,SW,220,3.0,6.0,71,0.00,CLR,,0.00,WeatherDisplay:10.37,2013-08-14 03:45:00,
2013-08-13 23:50:00,80.8,70.5,30.01,SSW,213,2.0,6.0,71,0.00,CLR,,0.00,WeatherDisplay:10.37,2013-08-14 03:50:00,
2013-08-13 23:55:00,80.6,70.3,30.01,WSW,240,3.5,3.5,71,0.00,CLR,,0.00,WeatherDisplay:10.37,2013-08-14 03:55:00,